#timestamp,LO_Frequency,Hit,StdDev 
1595019615.9,286046998.4,P
1595019635.7,286046996.6,P
1595019655.5,286046996.7,P
1595019675.4,286046999.2,N
1595019695.2,286046998.1,N
1595019715.0,286047000.8,N
1595019715.9,286047000.8,N
1595019735.8,286047001.1,N
1595019755.6,286047000.8,N
1595019775.5,286046998.1,N
1595019795.3,286046998.8,N
1595019815.1,286047000.5,N
1595019835.9,286046998.1,N
1595019855.7,286046998.5,N
1595019875.5,286047000.9,N
1595019895.4,286047000.7,N
1595019915.2,286047001.2,N
1595019935.1,286047004.2,N
1595019936.0,286047004.2,N
1595019955.8,286047001.6,N
1595019975.6,286047002.1,N
1595019995.5,286047001.7,N
1595020015.3,286047005.4,N
1595020035.2,286047004.0,N
1595020055.0,286047004.3,N
1595020055.9,286047004.3,N
1595020075.8,286047001.7,N
1595020095.6,286047005.9,N
1595020115.4,286047001.6,N
1595020135.3,286047001.7,N
1595020155.1,286046999.7,N
1595020175.9,286047000.1,N
1595020195.7,286047000.6,N
1595020215.5,286047000.0,N
1595020235.4,286047002.8,N
1595020255.2,286047002.6,N
1595020275.1,286047003.2,N
1595020276.0,286047003.2,N
1595020295.8,286047003.9,N
1595020315.6,286047003.3,N
1595020335.5,286046999.7,N
1595020355.3,286047000.1,N
1595020375.2,286047000.4,N
1595020395.9,286047002.3,N
1595020415.7,286046999.8,N
1595020435.6,286046999.7,N
1595020455.4,286047000.9,N
1595020475.2,286047000.1,N
1595020495.1,286047004.2,N
1595020496.0,286047004.2,N
1595020515.8,286047002.2,N
1595020535.7,286047002.8,N
1595020555.5,286047000.2,N
1595020575.3,286047004.4,N
1595020595.2,286047002.5,N
1595020615.0,286047001.0,N
1595020615.9,286047001.0,N
1595020635.8,286046998.3,N
1595020655.6,286047000.6,N
1595020675.4,286047000.7,N
1595020695.3,286047000.8,N
1595020715.1,286047000.2,N
1595020735.9,286047004.2,N
1595020755.7,286047001.7,N
1595020775.5,286047002.4,N
1595020795.4,286047004.3,N
1595020815.2,286047000.0,N
1595020835.0,286047001.2,N
1595020835.9,286047001.2,N
1595020855.8,286047002.6,N
1595020875.6,286047002.5,N
1595020895.5,286047000.0,N
1595020915.3,286047001.9,N
1595020935.1,286046999.9,N
1595020955.9,286047001.1,N
1595020975.7,286047001.1,N
1595020995.6,286047000.0,N
1595021015.4,286047000.9,N
1595021035.2,286046999.8,N
1595021055.1,286047004.3,N
1595021056.0,286047004.3,N
1595021075.8,286047001.3,N
1595021095.7,286047002.6,N
1595021115.5,286047002.4,N
1595021135.3,286047001.5,N
1595021155.2,286047002.3,N
1595021175.0,286047004.3,N
1595021175.9,286047004.3,N
1595021195.7,286047001.8,N
1595021215.6,286047002.7,N
1595021235.4,286047002.4,N
1595021255.3,286047001.5,N
1595021275.1,286047001.3,N
1595021295.8,286047005.6,Y
1595021315.7,286047004.3,P
1595021335.5,286047002.8,N
1595021355.4,286047001.8,N
1595021375.2,286047001.6,N
1595021395.0,286047007.6,Y
1595021395.9,286047007.6,P
1595021415.8,286047005.4,N
1595021435.6,286047000.1,N
1595021455.5,286047000.9,N
1595021475.3,286047000.9,N
1595021495.1,286047000.8,N
1595021515.9,286047002.7,N
1595021535.7,286047002.7,N
1595021555.5,286047000.9,N
1595021575.4,286047002.5,N
1595021595.2,286047003.9,N
1595021615.1,286047004.0,N
1595021616.0,286047004.0,N
1595021635.8,286047004.1,N
1595021655.6,286047001.5,N
1595021675.5,286047005.3,N
1595021695.3,286047004.6,N
1595021715.2,286047005.8,N
1595021735.9,286047005.9,N
1595021755.7,286047002.1,N
1595021775.6,286047002.7,N
1595021795.4,286047003.0,N
1595021815.3,286047002.9,N
1595021835.1,286047003.4,N
1595021836.0,286047003.4,N
1595021855.8,286047003.8,N
1595021875.7,286047001.5,N
1595021895.5,286047006.0,Y
1595021915.4,286046998.1,P
1595021935.2,286046998.3,N
1595021955.0,286046999.6,N
1595021955.9,286046999.6,N
1595021975.8,286046999.3,N
1595021995.6,286046998.4,N
1595022015.5,286046998.1,N
1595022035.3,286046998.5,N
1595022055.1,286046996.5,N
1595022075.9,286046999.3,N
1595022095.7,286046999.1,N
1595022115.5,286047000.4,N
1595022135.4,286047002.7,N
1595022185.2,286047001.3,E
1595022195.2,286047002.5,N
1595022215.0,286047002.6,P
1595022215.9,286047002.6,P
1595022235.7,286047000.0,N
1595022255.6,286046999.7,N
1595022275.4,286047002.3,N
1595022295.3,286046998.5,N
1595022315.1,286046998.8,N
1595022335.8,286046998.2,N
1595022355.7,286046999.6,N
1595022375.5,286047000.7,N
1595022395.4,286046999.9,N
1595022415.2,286047002.2,N
1595022435.0,286046999.8,N
1595022435.9,286046999.8,N
1595022455.8,286046998.1,N
1595022475.6,286046996.8,N
1595022495.4,286046997.2,N
1595022515.3,286046996.7,N
1595022535.1,286046998.8,N
1595022555.9,286046999.6,N
1595022575.7,286046996.8,N
1595022595.5,286046997.4,N
1595022615.4,286046997.4,N
1595022635.2,286046997.1,N
1595022655.0,286046997.6,N
1595022656.0,286046997.6,N
1595022675.8,286046998.0,N
1595022695.6,286046995.6,N
1595022715.5,286046995.0,N
1595022735.3,286046996.7,N
1595022755.1,286046995.0,N
1595022775.9,286046995.6,N
1595022795.7,286046993.3,Y
1595022815.6,286046998.0,P
1595022835.4,286046997.8,P
1595022855.2,286046994.9,P
1595022875.1,286046998.0,N
1595022876.0,286046998.0,N
1595022895.8,286046994.9,Y
1595022915.7,286047000.8,P
1595022935.5,286046998.3,N
1595022955.3,286046999.3,N
1595022975.2,286046998.3,N
1595022995.0,286046999.3,N
1595022995.9,286046999.3,N
1595023015.7,286046998.9,N
1595023035.6,286046999.6,N
1595023055.4,286046999.6,N
1595023075.3,286047001.2,N
1595023095.1,286047000.1,N
1595023115.8,286047000.9,N
1595023135.7,286047001.0,N
1595023155.5,286046999.1,N
1595023175.4,286046998.8,N
1595023195.2,286046999.1,N
